Location: Bourg-d�Oueil
(42.8588°N, 0.4991°E)
Time: 16:00:03
(UTC+00:00)

Tiangong - Visible Passes

Search period start: 27 November 2022 00:00
Search period end: 07 December 2022 00:00
Orbit: 386 x 393 km, 41.5° (Epoch: 27 November)

Date Brightness Start Highest point End Pass type
(mag) Time Alt. Az. Time Alt. Az. Time Alt. Az.
28 Nov 1.1 18:57:46 10° SW 18:57:54 11° SW 18:57:54 11° SW visible
29 Nov -0.2 18:00:08 10° SSW 18:02:28 19° SSE 18:02:33 19° SSE visible
30 Nov 0.4 17:03:01 10° S 17:04:20 12° SSE 17:05:40 10° ESE visible
30 Nov -0.1 18:37:43 10° SW 18:39:22 25° SW 18:39:22 25° SW visible
01 Dec -0.8 17:39:34 10° SW 17:42:23 29° SSE 17:43:43 21° ESE visible
01 Dec 1.5 19:15:54 10° WSW 19:16:00 11° WSW 19:16:00 11° WSW visible
02 Dec -1.6 18:17:24 10° WSW 18:20:13 53° SSW 18:20:13 53° SSW visible
03 Dec -1.3 17:18:52 10° WSW 17:21:54 43° SSE 17:24:18 15° E visible
03 Dec 0.7 18:55:30 10° W 18:56:35 19° W 18:56:35 19° W visible
04 Dec -2.0 17:56:43 10° WSW 17:59:53 67° S 18:00:34 48° ESE visible
05 Dec -1.7 16:57:53 10° WSW 17:01:00 57° S 17:04:08 10° E visible
05 Dec -0.6 18:34:38 10° W 18:36:43 36° WSW 18:36:43 36° WSW visible
06 Dec -2.0 17:35:37 10° W 17:38:47 69° S 17:40:33 23° ESE visible
06 Dec 1.4 19:12:31 10° W 19:12:48 12° W 19:12:48 12° W visible
